{"data":{"norad_id":52855,"intl_designator":"2022-062AB","name":"STARLINK-4209","alt_names":[],"object_type":"PAYLOAD","status":"ACTIVE","operator":null,"country":"US","launch_date":"2022-06-17","launch_site_code":"AFETR","launch_vehicle":null,"mission":null,"orbit_class":"UNKNOWN","rcs_meters":null,"size_class":null,"mass_kg":null,"dimensions":null,"purposes":["comms"],"wikipedia_slug":null,"has_3d_model":false,"image_url":null,"decayed_at":null,"tle_current":{"epoch":"2026-05-24T23:55:43.004928Z","epoch_age_seconds":89479,"freshness":"FRESH","line1":"1 52855U 22062AB  26144.99702552 -.00001091  00000+0 -50447-4 0  9999","line2":"2 52855  53.2135  41.5617 0001896  92.1003 268.0207 15.08843735217446","mean_motion":15.08843735,"eccentricity":0.0001896,"inclination_deg":53.2135,"raan_deg":41.5617,"arg_perigee_deg":92.1003,"mean_anomaly_deg":268.0207,"bstar":-5.0447e-5,"rev_number":21744,"period_min":95.437318431123,"perigee_km":538.42034462966,"apogee_km":541.04360054406,"semimajor_km":6917.8689725869,"source":"CELESTRAK","updated_at":"2026-05-25T13:38:17.246064Z"}}}